"Pseudo-MPEC" for P115xxT

Created 2020 Sep 17 17:07:28 UT using Find_Orb

Click here for an explanation of pseudo-MPECs

 
 Astrometry: 
     P115xxT  C2020 09 12HtQAstrometry#U+B@r5OC4rqU1gQredacted;]clickWhereJR)F51
     P115xxT  C2020 09 12)#!oBnqpEtK+qE#`uFtmqPX_'o+HFhd#DZy8+p7uBQAforE7Fec=F51
     P115xxT  C2020 09 12;uwk?\9?%#vI7v;wF,WAO.bNyexplanationXtdu8Zq:13mU,r2]F51
     P115xxT  C2020 09 14.17689 21 52 28.72 +03 59 50.6    ~9E4q 21.6 GVNEOCPI52
     P115xxT  C2020 09 14.17935 21 52 28.77 +04 00 37.0    ~9E4q 21.0 GVNEOCPI52
     P115xxT  C2020 09 14.18428 21 52 28.60 +04 02 22.0    ~9E4q 20.5 GVNEOCPI52

Station data:
(F51) Pan-STARRS 1, Haleakala  (N20.707235 W156.255910)  US/Hawaii.
   Observers N. Primak, A. Schultz, S. Watters, J. Thiel, T. Goggia. Measurer
   PS1 Science Consortium. 1.8-m Ritchey-Chrétien + CCD.
(I52) Steward Observatory, Mt. Lemmon Station  (N32.442547 W110.788920)
   US/Arizona.  Observers T. A. Pruyne, B. M. Africano, E. J. Christensen, G.
   A. Farneth, D. C. Fuls, A. R. Gibbs, A. D. Grauer, H. Gröller, J. A.
   Johnson, R. A. Kowalski, S. M. Larson, G. J. Leonard, D. Rankin, R. L.
   Seaman, F. C. Shelly. 1.0-m reflector + CCD.

Orbital elements:  P115xxT
   Perihelion 2020 Sep 24.252482 +/- 0.687 TT =  6:03:34 (JD 2459116.752482)
Epoch 2020 Sep 14.0 TT = JDT 2459106.5   Earth MOID: 0.0054   AutoNEOCP
M 350.78486790 +/- 0.6              (J2000 ecliptic)
n   0.89881963 +/- 0.00124          Peri.   13.34365 +/- 0.6
a   1.06337802 +/- 0.000975         Node   348.07268 +/- 0.011
e   0.0492811 +/- 0.000916          Incl.    1.72739 +/- 0.016
P   1.10/400.52d           H 30.9   G  0.15   U  8.2  
q 1.01097350 +/- 0.000132    Q 1.11578254 +/- 0.00199
From 6 observations 2020 Sept. 12-14 (45.0 hr); mean residual 1".52
Residuals in arcseconds: 
200912 F51  .37+  .09+    200912 F51  .80+  .01+    200914 I52  1.3+  2.8-    
200912 F51  1.2-  .10-    200914 I52  1.6+  .95+    200914 I52  3.0-  1.8+    

Ephemerides (geocentric):
Date (UTC) HH   RA              Dec         delta   r     elong  mag " sig PA
---- -- -- --  -------------   -----------  ------ ------ -----  --- ---- ---
2020 09 17 17  22 19 24.055   +21 40 56.28  .00723 1.0112 149.0 21.5 77.9  16
2020 09 17 18  22 19 42.891   +21 51 36.05  .00724 1.0111 148.9 21.5 79.4  17
2020 09 17 19  22 20 01.719   +22 02 13.31  .00725 1.0111 148.8 21.5 81.0  17
2020 09 17 20  22 20 20.536   +22 12 48.07  .00727 1.0111 148.7 21.5 82.5  17
2020 09 17 21  22 20 39.344   +22 23 20.32  .00728 1.0111 148.6 21.6 84.1  17
2020 09 17 22  22 20 58.143   +22 33 50.07  .00729 1.0111 148.5 21.6 85.7  17
2020 09 17 23  22 21 16.933   +22 44 17.31  .00731 1.0111 148.4 21.6 87.3  17
2020 09 18 00  22 21 35.714   +22 54 42.06  .00732 1.0111 148.3 21.6 88.9  17
2020 09 18 01  22 21 54.485   +23 05 04.31  .00733 1.0111 148.2 21.6 90.5  17
2020 09 18 02  22 22 13.248   +23 15 24.06  .00735 1.0111 148.1 21.6 92.2  18
2020 09 18 03  22 22 32.002   +23 25 41.32  .00736 1.0111 148.0 21.6 93.8  18
2020 09 18 04  22 22 50.746   +23 35 56.10  .00737 1.0111 147.9 21.6 95.5  18
2020 09 18 05  22 23 09.483   +23 46 08.38  .00739 1.0111 147.8 21.6 97.2  18
2020 09 18 06  22 23 28.210   +23 56 18.18  .00740 1.0111 147.8 21.6 98.9  18
2020 09 18 07  22 23 46.930   +24 06 25.50  .00741 1.0111 147.7 21.6  101  18
2020 09 18 08  22 24 05.640   +24 16 30.35  .00743 1.0111 147.6 21.6  102  18
2020 09 18 09  22 24 24.343   +24 26 32.72  .00744 1.0110 147.5 21.6  104  18
2020 09 18 10  22 24 43.037   +24 36 32.62  .00745 1.0110 147.4 21.6  106  18
2020 09 18 11  22 25 01.722   +24 46 30.06  .00747 1.0110 147.3 21.6  108  19
2020 09 18 12  22 25 20.400   +24 56 25.03  .00748 1.0110 147.2 21.6  109  19
2020 09 18 13  22 25 39.070   +25 06 17.54  .00749 1.0110 147.1 21.7  111  19
2020 09 18 14  22 25 57.732   +25 16 07.60  .00751 1.0110 147.0 21.7  113  19
2020 09 18 15  22 26 16.386   +25 25 55.21  .00752 1.0110 146.9 21.7  115  19
2020 09 18 16  22 26 35.032   +25 35 40.38  .00753 1.0110 146.8 21.7  117  19
2020 09 18 17  22 26 53.670   +25 45 23.10  .00755 1.0110 146.7 21.7  118  19
2020 09 18 18  22 27 12.300   +25 55 03.38  .00756 1.0110 146.6 21.7  120  19
2020 09 18 19  22 27 30.923   +26 04 41.24  .00758 1.0110 146.5 21.7  122  19
2020 09 18 20  22 27 49.539   +26 14 16.66  .00759 1.0110 146.5 21.7  124  19
2020 09 18 21  22 28 08.147   +26 23 49.67  .00760 1.0110 146.4 21.7  126  20
2020 09 18 22  22 28 26.747   +26 33 20.26  .00762 1.0110 146.3 21.7  128  20
2020 09 18 23  22 28 45.341   +26 42 48.43  .00763 1.0110 146.2 21.7  130  20
2020 09 19 00  22 29 03.927   +26 52 14.20  .00765 1.0110 146.1 21.7  132  20
2020 09 19 01  22 29 22.505   +27 01 37.56  .00766 1.0109 146.0 21.7  133  20
2020 09 19 02  22 29 41.077   +27 10 58.53  .00768 1.0109 145.9 21.7  135  20
2020 09 19 03  22 29 59.641   +27 20 17.11  .00769 1.0109 145.8 21.7  137  20
2020 09 19 04  22 30 18.199   +27 29 33.30  .00770 1.0109 145.7 21.8  139  20
2020 09 19 05  22 30 36.749   +27 38 47.12  .00772 1.0109 145.6 21.8  141  20
2020 09 19 06  22 30 55.293   +27 47 58.56  .00773 1.0109 145.5 21.8  143  20
2020 09 19 07  22 31 13.830   +27 57 07.63  .00775 1.0109 145.5 21.8  145  20
2020 09 19 08  22 31 32.359   +28 06 14.34  .00776 1.0109 145.4 21.8  147  21
2020 09 19 09  22 31 50.882   +28 15 18.69  .00778 1.0109 145.3 21.8  149  21
2020 09 19 10  22 32 09.399   +28 24 20.69  .00779 1.0109 145.2 21.8  151  21
2020 09 19 11  22 32 27.909   +28 33 20.35  .00781 1.0109 145.1 21.8  153  21
2020 09 19 12  22 32 46.412   +28 42 17.67  .00782 1.0109 145.0 21.8  155  21
2020 09 19 13  22 33 04.908   +28 51 12.66  .00784 1.0109 144.9 21.8  157  21
2020 09 19 14  22 33 23.398   +29 00 05.32  .00785 1.0109 144.8 21.8  159  21
2020 09 19 15  22 33 41.882   +29 08 55.67  .00787 1.0109 144.7 21.8  161  21
2020 09 19 16  22 34 00.359   +29 17 43.70  .00788 1.0108 144.6 21.8  163  21